Regional Weather Roundup
Issued by NWS

Home | Current Version | Previous Version | Graphics & Text | Print | Product List | Glossary On
Versions: 1 2 3 4 5 6 7 8 9 10 11 12 13 14 15 16 17 18 19 20 21 22 23 24 25 26 27 28 29 30 31 32 33 34 35 36 37 38 39 40 41 42 43 44 45 46 47 48 49 50
000
ASUS43 KTOP 232208
RWRKS

WEATHER ROUNDUP FOR KANSAS
NATIONAL WEATHER SERVICE GOODLAND KS
500 PM CDT SUN APR 23 2017

NOTE:  "FAIR" INDICATES FEW OR NO CLOUDS BELOW 12,000 FEET WITH NO
SIGNIFICANT WEATHER AND/OR OBSTRUCTIONS TO VISIBILITY.

KSZ001>006-013>018-027>032-041>047-232300-
NORTHWEST KANSAS

CITY           SKY/WX    TMP DP  RH WIND       PRES   REMARKS
GOODLAND       CLOUDY    69  38  32 S25G40    29.84F
HILL CITY      CLOUDY    70  26  19 S18G31    29.92F
RUSSELL        CLOUDY    69  34  27 S24G31    29.96F
$$

KSZ061>065-074>080-084>089-232300-
SOUTHWEST KANSAS

CITY           SKY/WX    TMP DP  RH WIND       PRES   REMARKS
DODGE CITY     CLOUDY    67  31  26 S26G37    29.98F
ELKHART          N/A     70  38  31 S23         N/A
GARDEN CITY    CLOUDY    67  35  30 S24G37    29.94F
GREAT BEND     SUNNY     67  39  35 S20G29    29.99F
PRATT          SUNNY     66  32  28 S10       30.03F
$$

KSZ066>073-081>083-090>101-232300-
SOUTHEAST KANSAS

CITY           SKY/WX    TMP DP  RH WIND       PRES   REMARKS
CHANUTE        SUNNY     68  38  33 NW3       30.08F
COFFEYVILLE    SUNNY     69  39  33 NW7       30.07F
HUTCHINSON     SUNNY     68  36  30 SE10G20   30.03F
MEDICINE LODGE   N/A     67  35  30 SE12      30.04F
PARSONS        SUNNY     68  39  34 NW5       30.09F
WICHITA INTL   MOSUNNY   67  33  28 S6        30.06F
WICHITA JABRA  SUNNY     67  31  26 VRB6      30.06F
WICHITA MCCONL SUNNY     68  32  26 SW7       30.06F HAZE
WINFIELD       SUNNY     68  38  33 S5        30.08F
$$

KSZ007>012-019>026-033>040-048>060-102>105-232300-
NORTHEAST KANSAS

CITY           SKY/WX    TMP DP  RH WIND       PRES   REMARKS
CONCORDIA      MOSUNNY   65  38  36 S18G24    29.99F
EMPORIA        SUNNY     67  35  30 VRB5      30.07F
LAWRENCE       SUNNY     71  32  23 S6        30.06F
MANHATTAN      SUNNY     71  36  27 SW12G20   30.01F
MARYSVILLE     SUNNY     70  34  26 S14       30.00F
OLATHE IND     SUNNY     69  33  26 S3        30.07F
OLATHE EXE     SUNNY     69  33  26 VRB3      30.06F
SALINA         SUNNY     69  36  29 S14       30.02F
TOPEKA BILLARD SUNNY     70  32  24 VRB7      30.05F
TOPEKA FORBES  SUNNY     70  35  27 S5        30.06F
$$




USA.gov is the U.S. government's official web portal to all federal, state and local government web resources and services.